GSAT0212 (GALILEO 16)

Last updated on Sat Dec 13 2025 00:02:35 GMT+0000 (Coordinated Universal Time)

1 41860U 16069B 25345.47896353 .00000008 00000+0 00000+0 0 9991 2 41860 55.3791 106.2805 0002163 27.6057 332.3763 1.70474595 56451
UTC large
Height (km)
Speed (km/s)
/
Latitude / Longitude
Inclination (degrees)
Orbital Period (minutes)
Azimuth
Elevation
Range (km)
Doppler Factor

Next 0 passes for location: London (51.5072 / 0.1276)

Sorry there are no passes over London.